Showing default

O3B FM13, 43234

Orbit data source: Space-Track

O3B FM13, 43234 is a payload satellite owned by O3B SES (JE) that was launched on Fri, 09 Mar 2018 UTC via a SOYUZ-ST-B launch vehicle from the French Guiana (FRGUI). Payload-class satellites include a variety of spacecraft equipped with specific instruments for various scientific and technological missions. These include communications satellites like Starlink; space stations such as the ISS; scientific satellites like the Hubble; Earth observation satellites from companies like Planet Labs, Umbra, and HawkEye 360; GPS; miniature CubeSats for education and research; and military/defense satellites.

Loading next visibility...
Identifier
43234, 2018-024D
Orbit
Active
Country
Flag of UnknownUnknown / O3B
Related business
Manufacturer
Thales Alenia
Mission
Operational Commercial Communications
Bus & Motor
PRISMA?, LS-400 AOCS?
Mass
700 kg wet, ~500 kg dry
Launch date (UTC)
2018-03-09 (8 years ago)
Launch vehicle
SOYUZ-ST-B
Launch site
French Guiana (FRGUI)
Object type
Payload
Rocket body
Debris
Shape & HBR
Trap Box + 2 Pan, 6.0 m
Radar Cross Section
21.980 m², Large (>1 m²)

Expand to show TLE details & history
Last TLE update: 17 hours ago

TLE from 17 hours ago
0 O3B FM13
1 43234U 18024D   25350.95160544 -.00000017  00000-0  00000-0 0  9999
2 43234   0.0601 356.8943 0004546 273.8773  89.1788  5.00115540141939
Epoch: 2025-12-16T22:50Z
TLE epoch observation values (Epoch: 2025-12-16T22:50:18.710Z)
Latitude
0.00495°
Longitude
-68.4064°
Altitude
8,064.281 km
Speed
5.254 km/s
True Right ascension
00h 00m 00s
True Declination
0° 00' 18"
Sunlit
Object was in daylight at epoch
Visualization orbit readout
Latitude
Unknown
Longitude
Unknown
Altitude
Unknown
Speed
Unknown
Apparent Right ascension
Unknown
Apparent Declination
Unknown
Sunlit
N/A
Visualization observer readout
Local Sidereal Time
14:57:02
Azimuth
Unknown
Elevation
Unknown
Doppler factor
Unknown
Orbital elements
Apogee altitude
8,075.516 km
Perigee altitude
8,062.38 km
Semi-major axis
14,447.085 km
Eccentricity
0.00045
Inclination
0.0601°
RAAN
356.8943°
Arg. of periapsis
273.8773°
True anomaly
89.23089°
Mean anomaly
89.1788°
Eccentric anomaly
89.20484°
Mean motion
1.24989 °/min
Orbital period
288.02 mins
BSTAR
0
Loading maneuver chart data...
Computing Atmospheric mass density...
Loading historical data...
Loading historical data...
Loading historical data...
Loading historical data...
Loading historical data...
Loading historical data...
Loading historical data...
Other satellites on launch #24 in the year 2018 (2018-03-09 UTC)

Documentation

Showing up to 5 results
|